Simultaneous Nadir Overpasses (SNOs) Predictions

Prediction of SNOs between NOAA-20 and METOP-B Satellite Orbit:

Table of predicted SNOs for the next 14.0 days since TLE Epoch: 6/1/2019
Index Date (NOAA-20) Time (NOAA-20) Lat,Lon (NOAA-20) SZA (NOAA-20 ) Date (METOP-B) Time (METOP-B) Lat,Lon (METOP-B) SZA (METOP-B ) Distance(km) Time Diff (sec)
1 06/11/2019 05:04:42 73.37, 94.32 50.49 06/11/2019 05:05:50 73.32, 96.47 50.31 68.78 68
2 06/11/2019 05:55:25 -73.31, -98.23 129.59 06/11/2019 05:56:34 -73.24, -96.38 129.77 59.47 69
3 06/11/2019 06:46:06 73.08, 69.60 50.16 06/11/2019 06:47:18 73.00, 70.42 50.02 28.44 72
4 06/11/2019 07:36:49 -73.02,-122.96 129.92 06/11/2019 07:38:01 -72.97,-122.31 130.02 21.67 72
5 06/11/2019 08:27:31 72.83, 44.75 49.88 06/11/2019 08:28:43 72.82, 44.72 49.86 1.43 72
6 06/11/2019 09:18:15 -72.82,-147.92 130.14 06/11/2019 09:19:25 -72.85,-147.91 130.13 2.45 70
7 06/11/2019 10:09:01 72.84, 19.36 49.88 06/11/2019 10:10:04 72.85, 19.44 49.88 3.16 63
8 06/11/2019 10:59:45 -72.83,-173.30 130.13 06/11/2019 11:00:47 -72.82,-173.29 130.15 0.70 62
9 06/11/2019 11:50:31 72.85, -6.03 49.89 06/11/2019 11:51:26 72.83, -5.94 49.86 3.35 55
10 06/11/2019 12:41:13 -72.79, 161.41 130.19 06/11/2019 12:42:08 -72.80, 161.32 130.18 3.53 55
11 06/11/2019 13:31:59 72.80, -31.31 49.83 06/11/2019 13:32:47 72.81, -31.32 49.83 1.11 48
12 06/11/2019 14:22:43 -72.79, 136.02 130.18 06/11/2019 14:23:30 -72.78, 135.94 130.20 2.88 47
13 06/11/2019 15:13:29 72.81, -56.70 49.84 06/11/2019 15:14:09 72.79, -56.71 49.81 1.98 40
14 06/11/2019 16:04:13 -72.80, 110.64 130.18 06/11/2019 16:04:51 -72.81, 110.67 130.18 1.90 38
15 06/11/2019 16:54:58 72.76, -81.98 49.78 06/11/2019 16:55:31 72.77, -82.09 49.79 3.52 33
16 06/11/2019 17:45:43 -72.81, 85.25 130.18 06/11/2019 17:46:13 -72.79, 85.28 130.20 1.76 30
17 06/11/2019 18:36:28 72.77,-107.37 49.79 06/11/2019 18:36:52 72.80,-107.36 49.81 3.26 24
18 06/11/2019 19:27:12 -72.76, 59.97 130.23 06/11/2019 19:27:35 -72.77, 59.90 130.22 2.50 23
19 06/11/2019 20:17:58 72.78,-132.76 49.79 06/11/2019 20:18:14 72.78,-132.75 49.79 0.43 16
20 06/11/2019 21:08:42 -72.77, 34.58 130.23 06/11/2019 21:08:57 -72.75, 34.52 130.25 2.66 15
21 06/11/2019 21:59:28 72.78,-158.15 49.79 06/11/2019 21:59:36 72.76,-158.13 49.76 2.87 8
22 06/11/2019 22:50:12 -72.77, 9.19 130.23 06/11/2019 22:50:18 -72.78, 9.24 130.22 1.86 6
23 06/11/2019 23:40:57 72.74, 176.57 49.74 06/11/2019 23:40:58 72.74, 176.49 49.74 2.75 1
24 06/12/2019 00:31:42 -72.78, -16.20 130.22 06/12/2019 00:31:40 -72.76, -16.14 130.25 2.83 2
25 06/12/2019 01:22:27 72.75, 151.18 49.74 06/12/2019 01:22:19 72.77, 151.21 49.76 2.58 8
26 06/12/2019 02:13:11 -72.74, -41.48 130.28 06/12/2019 02:13:02 -72.74, -41.52 130.27 1.51 9
27 06/12/2019 03:03:57 72.75, 125.79 49.74 06/12/2019 03:03:41 72.75, 125.83 49.74 1.26 16
28 06/12/2019 03:54:41 -72.74, -66.87 130.27 06/12/2019 03:54:24 -72.72, -66.91 130.29 2.86 17
29 06/12/2019 04:45:26 72.71, 100.51 49.69 06/12/2019 04:45:03 72.73, 100.44 49.72 2.96 23
30 06/12/2019 05:36:11 -72.75, -92.26 130.27 06/12/2019 05:35:45 -72.75, -92.18 130.27 2.38 26
31 06/12/2019 06:26:56 72.72, 75.12 49.69 06/12/2019 06:26:25 72.71, 75.06 49.69 2.27 31
32 06/12/2019 07:17:40 -72.71,-117.54 130.32 06/12/2019 07:17:07 -72.73,-117.57 130.29 2.80 33
33 06/12/2019 08:08:26 72.72, 49.73 49.70 06/12/2019 08:07:46 72.74, 49.78 49.72 2.27 40
34 06/12/2019 08:59:10 -72.71,-142.93 130.32 06/12/2019 08:58:29 -72.71,-142.95 130.31 0.79 41
35 06/12/2019 09:49:56 72.73, 24.35 49.70 06/12/2019 09:49:08 72.72, 24.40 49.69 2.34 48
36 06/12/2019 10:40:40 -72.72,-168.32 130.32 06/12/2019 10:39:51 -72.69,-168.33 130.34 3.42 49
37 06/12/2019 11:31:25 72.69, -0.94 49.65 06/12/2019 11:30:30 72.70, -0.98 49.67 1.85 55
38 06/12/2019 12:22:10 -72.73, 166.30 130.31 06/12/2019 12:21:12 -72.72, 166.39 130.31 3.21 58
39 06/12/2019 13:12:55 72.69, -26.32 49.65 06/12/2019 13:11:52 72.67, -26.36 49.65 2.28 63
40 06/12/2019 14:03:39 -72.68, 141.01 130.37 06/12/2019 14:02:34 -72.70, 141.01 130.34 1.85 65
41 06/12/2019 14:54:25 72.70, -51.71 49.65 06/12/2019 14:53:13 72.71, -51.64 49.67 2.49 72
42 06/12/2019 15:45:09 -72.69, 115.62 130.36 06/12/2019 15:43:56 -72.68, 115.63 130.36 1.17 73
43 06/12/2019 16:35:51 72.50, -76.69 49.44 06/12/2019 16:34:38 72.53, -77.33 49.51 21.89 73
44 06/12/2019 17:26:34 -72.44, 90.75 130.64 06/12/2019 17:25:22 -72.45, 89.83 130.56 30.79 72
45 06/12/2019 18:17:15 72.20,-101.47 49.11 06/12/2019 18:16:06 72.20,-103.32 49.22 62.96 69
46 06/12/2019 19:07:58 -72.14, 65.96 130.96 06/12/2019 19:06:49 -72.18, 63.95 130.81 68.59 69




NCC Satellite Simultaneous Nadir Overpasses (SNOs) Prediction Service
